Location: *
(40.7873°S, 98.7174°E)
Time: 09:14:25
(UTC+00:00)

Aureole 1 Rocket - Pass Details

Date: 24 May 2022
Orbit: 377 x 1350 km, 73.9° (Epoch: 04 July)

Event Time Altitude Azimuth Distance (km) Brightness Sun altitude
Rises 11:28:15 0° 197° (SSW) 4,255 7.4 -14.6°
Reaches altitude 10° 11:31:27 10° 190° (S) 3,177 6.6 -15.1°
Maximum altitude 11:38:37 45° 119° (ESE) 1,387 4.4 -16.5°
Drops below altitude 10° 11:44:16 10° 47° (NE) 2,511 5.8 -17.5°
Enters shadow 11:45:08 - 44° (NE) 2,807 6.1 -17.7°
